TeikyoSat 4
1 49396U 21102B   25294.79488450  .00003275  00000-0  21474-3 0  9992
2 49396  97.3966 328.3365 0013310  39.1982 321.0208 15.08288837216772
Z-Sat
1 49399U 21102E   25294.76756985  .00006682  00000-0  35271-3 0  9998
2 49399  97.3659 332.2781 0017535   4.4884 355.6503 15.15717646217291
KOSEN 1
1 49402U 21102H   25294.79848627  .00010950  00000-0  47533-3 0  9998
2 49402  97.3553 336.7920 0014170 334.5666  25.4872 15.22406866217692
HO-113
1 50466U 21131B   25294.85268488  .00001091  00000-0  35316-3 0  9992
2 50466  98.5077  23.5357 0005277  95.1780 265.0011 14.41004544200784
SNUGLITE 2
1 52899U 22065F   25294.84899396  .00002229  00000-0  43792-3 0  9999
2 52899  98.1884  75.6967 0008419  57.6072 302.5944 14.63616305176121
UmKA 1 (RS40S)
1 57172U 23091G   25294.78680623  .00008969  00000-0  45439-3 0  9999
2 57172  97.5420 349.4937 0012814 225.1680 134.8512 15.17141423127812
CubeBel-2 (EU11S)
1 57175U 23091K   25294.81984102  .00015293  00000-0  66632-3 0  9991
2 57175  97.5421 351.5819 0010308 228.3295 131.7059 15.22246115127959
ENSO
1 58470U 23185J   25292.61518760  .00451160  00000-0  16454-2 0  9996
2 58470  97.3536  13.8274 0005965 277.2761  82.7833 15.87329911105699
SONATE-2
1 59112U 24043Q   25294.84370941  .00032519  00000-0  77520-3 0  9993
2 59112  97.5303  69.3192 0009594 356.6905   3.4276 15.41465820 90971
MO-122
1 60209U 24125G   25294.68557075  .00037023  00000-0  85918-3 0  9995
2 60209  97.2598 145.1618 0017017  19.8210 340.3695 15.42140230 72575
GRBBeta
1 60237U 24128C   25294.57398059  .00006227  00000-0  44737-3 0  9998
2 60237  61.9918 331.9430 0056960  85.4897 275.2698 15.04019241 70344
Curium One
1 60242U 24128H   25294.48529402  .00010880  00000-0  69964-3 0  9991
2 60242  61.9808 328.2790 0056757  81.9302 278.8225 15.07536716 70408
ROBUSTA-3A
1 60243U 24128J   25294.60027552  .00010056  00000-0  65841-3 0  9990
2 60243  61.9883 329.1907 0056660  79.4927 281.2543 15.06949737 70401
CatSat
1 60246U 24125J   25294.75872568  .00037701  00000-0  10529-2 0  9999
2 60246  97.2410 142.8550 0036793 337.5787  22.3847 15.35923121 70539
HYPERVIEW-1G (RS66S)
1 61772U 24199AP  25294.86904847  .00042965  00000-0  98010-3 0  9993
2 61772  97.3284 163.8416 0013872  71.8149 288.4607 15.42675044 97603
AO-123
1 61781U 24199AY  25294.85014708  .00012701  00000-0  43076-3 0  9997
2 61781  97.3311 160.9056 0017074  81.7276 278.5900 15.30526430 97406
ZIMSAT 2
1 61783U 24199BA  25294.81878069  .00127830  00000-0  18223-2 0  9998
2 61783  97.3214 165.9438 0012328  66.8584 293.3968 15.55783072100893
HADES-R (SO-124)
1 62690U 25009CK  25294.16536504  .00113279  00000-0  24855-2 0  9990
2 62690  97.3979  15.4141 0002187 302.3705  57.7331 15.43627518 42636
HYDRA-T
1 62692U 25009CM  25294.50477204  .00116909  00000-0  24994-2 0  9998
2 62692  97.3975  15.8754 0002276 291.4115  68.6890 15.44383669 42694
JINJUSat 1B
1 63210U 25052A   25294.76939503  .00021136  00000-0  86409-3 0  9993
2 63210  97.4225 187.3347 0003076 170.9544 189.1749 15.24375014 33661
NUSHSAT 1
1 63211U 25052B   25294.66305521  .00025648  00000-0  10259-2 0  9991
2 63211  97.4211 187.2932 0002758 176.8850 183.2405 15.25070045 33657
TEVEL2-4
1 63213U 25052D   25294.64396466  .00024695  00000-0  10031-2 0  9998
2 63213  97.4131 186.9283 0001381 179.2104 180.9136 15.24563641 33647
TEVEL2-5
1 63214U 25052E   25294.25351334  .00024602  00000-0  10014-2 0  9990
2 63214  97.4131 186.5347 0001401 185.5860 174.5362 15.24495706 33586
TEVEL2-6
1 63215U 25052F   25294.65303817  .00024695  00000-0  10059-2 0  9999
2 63215  97.4131 186.9206 0001403 183.9942 176.1285 15.24468730 33646
TEVEL2-1
1 63217U 25052H   25294.81672522  .00022018  00000-0  90490-3 0  9996
2 63217  97.4105 186.9353 0000980 216.8664 143.2506 15.24193391 33669
TEVEL2-3
1 63218U 25052J   25294.81651876  .00022220  00000-0  91274-3 0  9992
2 63218  97.4106 186.9384 0000988 218.9630 141.1536 15.24207165 33664
TEVEL2-2
1 63219U 25052K   25294.81749933  .00021904  00000-0  90027-3 0  9998
2 63219  97.4105 186.9358 0000984 219.0943 141.0223 15.24191450 33661
TEVEL2-9
1 63237U 25052AD  25294.66608164  .00023049  00000-0  98600-3 0  9998
2 63237  97.4168 186.5615 0005026 268.3126  91.7535 15.22817412 33617
TEVEL2-7
1 63238U 25052AE  25294.80692388  .00020953  00000-0  89972-3 0  9999
2 63238  97.4169 186.6837 0005074 267.2894  92.7762 15.22708416 33637
TEVEL2-8
1 63239U 25052AF  25294.81163130  .00020646  00000-0  88737-3 0  9996
2 63239  97.4169 186.6754 0005068 267.6785  92.3871 15.22680049 33630
HYDRA-W
1 63490U 25052BL  25294.81590418  .00065523  00000-0  20248-2 0  9993
2 63490  97.4106 188.1825 0005505 253.7200 106.3437 15.33268191 33748
HADES-ICM (SO-125)
1 63492U 25052BN  25294.82518249  .00058173  00000-0  18651-2 0  9996
2 63492  97.4115 188.0361 0006071 261.2603  98.7951 15.32122309 33737
